Location: Haliburton Scout Reserve
(45.0900°N, 78.3200°W)
Time: 03:43:28
(UTC-04:00)

PCSat - Pass Details

Date: 26 May 2022
Orbit: 784 x 795 km, 67.1° (Epoch: 24 June)

Event Time Altitude Azimuth Distance (km) Brightness Sun altitude
Rises 01:46:02 0° 333° (NNW) 3,305 13.6 -23.3°
Reaches altitude 10° 01:48:44 10° 343° (NNW) 2,372 12.9 -23.2°
Maximum altitude 01:53:35 32° 46° (NE) 1,345 11.2 -23.0°
Drops below altitude 10° 01:58:24 10° 109° (ESE) 2,359 11.9 -22.9°
Enters shadow 02:00:38 - 118° (ESE) 3,131 12.5 -22.8°
